Location: Carella
(45.8167°N, 9.2667°E)
Time: 17:34:51
(UTC+00:00)

STARLINK-1229 - Pass Details

Date: 30 March 2020
Orbit: 378 x 381 km, 53.0° (Epoch: 29 May)

Event Time Altitude Azimuth Distance (km) Brightness Sun altitude
Rises 18:47:09 0° 255° (WSW) 2,247 7.8 -10.7°
Reaches altitude 10° 18:49:15 10° 262° (W) 1,396 6.8 -11.0°
Maximum altitude 18:52:16 44° 336° (NNW) 541 3.9 -11.5°
Drops below altitude 10° 18:55:17 10° 51° (NE) 1,400 5.4 -12.0°
Enters shadow 18:55:40 - 52° (NE) 1,553 5.6 -12.1°
